Weather reports worldwide

Advertisment
Toledo, Spain (8272): temperature & dewpoint: 16.02.2019 22:00:00 - 22.02.2019 22:00:00 (CET)Toledo, Spain (8272): wind speed: 16.02.2019 22:00:00 - 22.02.2019 22:00:00 (CET)Toledo, Spain (8272): wind direction: 16.02.2019 22:00:00 - 22.02.2019 22:00:00 (CET)Toledo, Spain (8272): reduced air pressure: 16.02.2019 22:00:00 - 22.02.2019 22:00:00 (CET)Toledo, Spain (8272): visibility: 16.02.2019 22:00:00 - 22.02.2019 22:00:00 (CET)Toledo, Spain (8272): precipitation: 16.02.2019 22:00:00 - 22.02.2019 22:00:00 (CET)
Date & Time tt [°C] td [°C] ff [km/h] ff [kn] dd ppp [hPa] vv [km] rr [mm]
22.02.2019 22:00:00 11,1 -2,4 2 1 SSW 1030,6 20 -
22.02.2019 21:00:00 12,9 -3,0 2 1 ENE 1030,0 19 0,0
22.02.2019 20:00:00 15,1 -4,3 4 2 NE 1029,3 20 0,0
22.02.2019 19:00:00 16,8 -3,9 9 5 NNE 1028,4 10 -
22.02.2019 18:00:00 20,5 -2,6 8 4 N 1027,5 20 0,0
22.02.2019 17:00:00 21,2 -2,7 15 8 NNW 1027,4 20 0,0
22.02.2019 16:00:00 22,4 -4,7 8 4 SE 1027,2 19 -
22.02.2019 15:00:00 20,9 -2,3 8 4 E 1027,9 20 0,0
22.02.2019 14:00:00 19,5 0,5 9 5 ESE 1029,0 20 0,0
22.02.2019 13:00:00 16,9 0,9 9 5 ESE 1030,5 20 -
22.02.2019 12:00:00 13,6 0,2 15 8 ESE 1032,0 20 0,0
22.02.2019 11:00:00 10,5 -0,1 13 7 E 1032,6 20 0,0
22.02.2019 10:00:00 6,9 -1,3 11 6 E 1033,6 20 -
22.02.2019 09:00:00 3,2 -1,9 4 2 ESE 1034,4 19 0,0
22.02.2019 08:00:00 0,6 -3,3 5 3 SSE 1034,5 20 0,0
22.02.2019 07:00:00 0,4 -3,3 4 2 NNW 1034,5 20 -
22.02.2019 06:00:00 2,6 -3,1 4 2 SE 1033,7 20 0,0
22.02.2019 05:00:00 4,4 -2,9 8 4 E 1032,9 20 0,0
22.02.2019 04:00:00 4,2 -3,1 4 2 SE 1032,8 20 -
22.02.2019 03:00:00 4,6 -3,0 4 2 SSE 1033,0 20 0,0
22.02.2019 02:00:00 6,3 -2,8 9 5 ESE 1032,6 20 0,0
22.02.2019 01:00:00 6,6 -2,6 9 5 E 1032,3 20 -
22.02.2019 00:00:00 8,6 -2,7 8 4 E 1031,7 20 0,0
21.02.2019 23:00:00 10,4 -2,6 8 4 ESE 1030,9 20 0,0
21.02.2019 22:00:00 11,0 -3,9 9 5 E 1030,1 20 -
21.02.2019 21:00:00 12,0 -4,6 4 2 SE 1029,1 20 0,0
21.02.2019 20:00:00 12,9 -4,3 11 6 E 1028,2 20 0,0
21.02.2019 19:00:00 15,6 -3,4 9 5 E 1026,8 20 -
21.02.2019 18:00:00 19,2 -3,7 11 6 SE 1025,7 20 0,0
21.02.2019 17:00:00 20,1 -2,9 11 6 SE 1025,5 20 0,0
21.02.2019 16:00:00 20,0 -1,8 13 7 ESE 1025,4 20 -
21.02.2019 15:00:00 19,5 1,9 15 8 ESE 1025,5 20 0,0
21.02.2019 14:00:00 18,1 3,9 18 10 E 1026,3 20 0,0
21.02.2019 13:00:00 15,7 4,4 15 8 E 1027,5 20 -
21.02.2019 12:00:00 12,8 4,2 16 9 E 1028,3 19 0,0
21.02.2019 11:00:00 9,4 3,1 18 10 ESE 1028,9 18 0,0
21.02.2019 10:00:00 7,2 2,3 9 5 SE 1029,1 19 -
21.02.2019 09:00:00 3,0 0,9 5 3 SE 1029,6 16 0,0
21.02.2019 08:00:00 0,9 -0,4 4 2 S 1029,4 13 0,0
21.02.2019 07:00:00 1,2 -0,3 2 1 S 1029,0 14 -
21.02.2019 06:00:00 2,0 0,4 2 1 S 1028,6 15 0,0
21.02.2019 05:00:00 2,9 0,6 4 2 SSE 1028,2 15 0,0
21.02.2019 04:00:00 3,6 1,3 2 1 NNW 1028,1 14 -
21.02.2019 03:00:00 4,5 1,5 4 2 E 1027,9 15 0,0
21.02.2019 02:00:00 5,7 2,3 4 2 SSE 1027,4 15 0,0
21.02.2019 01:00:00 6,6 2,5 4 2 ESE 1027,0 16 -
21.02.2019 00:00:00 8,2 2,8 2 1 W 1026,2 16 0,0
20.02.2019 23:00:00 8,4 2,8 4 2 W 1026,0 17 0,0
20.02.2019 22:00:00 9,3 3,1 4 2 SSW 1025,5 17 -
20.02.2019 21:00:00 11,2 3,0 0 0 N 1024,4 18 0,0
20.02.2019 20:00:00 12,4 3,1 2 1 E 1023,8 20 0,0
20.02.2019 19:00:00 13,9 3,4 5 3 NNE 1022,9 20 -
20.02.2019 18:00:00 17,0 3,3 8 4 WSW 1022,0 19 0,0
20.02.2019 17:00:00 18,5 3,9 8 4 W 1021,6 19 0,0
20.02.2019 16:00:00 18,4 3,8 9 5 SSW 1021,7 20 -
20.02.2019 15:00:00 17,5 4,1 8 4 SE 1022,1 20 0,0
20.02.2019 14:00:00 15,7 4,1 13 7 SE 1022,9 19 0,0
20.02.2019 13:00:00 13,4 4,8 13 7 ESE 1024,1 17 -
20.02.2019 12:00:00 10,5 4,4 15 8 ESE 1024,8 15 0,0
20.02.2019 11:00:00 8,5 3,7 15 8 E 1025,0 14 0,0
20.02.2019 10:00:00 6,5 2,8 13 7 E 1025,1 14 -
20.02.2019 09:00:00 4,7 2,7 5 3 E 1024,8 13 0,0
20.02.2019 08:00:00 3,3 1,7 5 3 ESE 1023,9 12 0,0
20.02.2019 07:00:00 3,9 1,8 2 1 W 1023,5 15 -
20.02.2019 06:00:00 4,4 1,8 4 2 E 1023,2 17 0,0
20.02.2019 05:00:00 4,8 2,5 8 4 ESE 1022,8 15 0,0
20.02.2019 04:00:00 5,5 2,8 2 1 WSW 1023,1 15 -
20.02.2019 03:00:00 5,8 3,0 5 3 ENE 1023,0 16 0,0
20.02.2019 02:00:00 6,6 3,0 5 3 E 1022,6 17 0,0
20.02.2019 01:00:00 7,0 3,1 4 2 S 1022,1 17 -
20.02.2019 00:00:00 8,1 3,2 2 1 WNW 1021,5 19 0,0
19.02.2019 23:00:00 8,2 3,2 4 2 NW 1021,6 19 0,0
19.02.2019 22:00:00 9,2 3,4 2 1 N 1021,0 19 -
19.02.2019 21:00:00 9,7 3,2 8 4 NW 1020,4 19 0,0
19.02.2019 20:00:00 11,2 3,2 5 3 W 1019,8 20 0,0
19.02.2019 19:00:00 13,0 3,1 5 3 WNW 1018,5 20 -
19.02.2019 18:00:00 15,8 2,9 11 6 W 1017,4 20 0,0
19.02.2019 17:00:00 17,1 2,7 13 7 W 1017,1 20 0,0
19.02.2019 16:00:00 16,9 2,8 4 2 N 1017,5 20 -
19.02.2019 15:00:00 16,7 3,7 8 4 SE 1017,9 19 0,0
19.02.2019 14:00:00 15,0 3,8 11 6 ESE 1018,9 20 0,0
19.02.2019 13:00:00 13,0 4,4 11 6 ESE 1020,4 20 -
19.02.2019 12:00:00 11,1 4,8 15 8 E 1021,2 19 0,0
19.02.2019 11:00:00 8,4 4,4 13 7 ESE 1021,7 18 0,0
19.02.2019 10:00:00 6,8 3,9 16 9 ESE 1021,9 16 -
19.02.2019 09:00:00 2,7 2,0 2 1 SE 1022,2 10 0,0
19.02.2019 08:00:00 2,4 1,2 2 1 WSW 1021,6 9 0,0
19.02.2019 07:00:00 2,1 1,4 5 3 ESE 1021,5 12 -
19.02.2019 06:00:00 2,2 1,0 2 1 S 1021,6 16 0,0
19.02.2019 05:00:00 2,9 0,8 5 3 E 1021,4 17 0,0
19.02.2019 04:00:00 4,7 1,9 4 2 ENE 1021,0 19 -
19.02.2019 03:00:00 5,0 1,3 5 3 E 1021,0 20 0,0
19.02.2019 02:00:00 5,4 1,7 11 6 E 1020,8 19 0,0
19.02.2019 01:00:00 5,3 1,8 4 2 E 1020,8 19 -
19.02.2019 00:00:00 6,8 2,1 4 2 ESE 1020,0 20 0,0
18.02.2019 23:00:00 7,7 2,4 4 2 NW 1019,6 20 0,0
18.02.2019 22:00:00 8,3 2,3 4 2 SE 1019,2 20 -
18.02.2019 21:00:00 8,9 2,5 8 4 WSW 1018,7 20 0,0
18.02.2019 20:00:00 11,5 1,4 2 1 SW 1017,7 20 0,0
18.02.2019 19:00:00 13,6 1,2 8 4 NE 1016,6 20 -
18.02.2019 18:00:00 16,2 1,5 5 3 ENE 1015,7 20 0,0
18.02.2019 17:00:00 16,5 1,7 8 4 ESE 1015,8 20 0,0
18.02.2019 16:00:00 15,8 2,2 11 6 ESE 1016,1 20 -
18.02.2019 15:00:00 15,8 3,2 13 7 E 1016,4 20 0,0
18.02.2019 14:00:00 14,6 3,7 11 6 E 1017,5 20 0,0
18.02.2019 13:00:00 13,2 4,3 21 11 E 1018,6 20 -
18.02.2019 12:00:00 11,0 4,7 16 9 E 1019,7 20 0,0
18.02.2019 11:00:00 8,1 3,7 21 11 E 1020,6 20 0,0
18.02.2019 10:00:00 7,0 3,6 18 10 E 1020,8 19 -
18.02.2019 09:00:00 5,4 3,1 18 10 E 1020,8 18 0,0
18.02.2019 08:00:00 5,1 3,4 18 10 E 1019,9 17 0,0
18.02.2019 07:00:00 5,0 3,5 13 7 ESE 1020,0 16 -
18.02.2019 06:00:00 4,9 3,4 13 7 E 1020,0 16 0,0
18.02.2019 05:00:00 5,4 3,2 15 8 E 1019,7 17 0,0
18.02.2019 04:00:00 6,0 2,6 13 7 E 1020,0 20 -
18.02.2019 03:00:00 6,2 2,5 15 8 E 1020,3 20 0,0
18.02.2019 02:00:00 6,7 2,2 15 8 E 1020,3 20 0,0
18.02.2019 01:00:00 7,1 1,8 13 7 E 1020,2 20 -
18.02.2019 00:00:00 8,4 1,8 15 8 E 1020,1 20 0,0
17.02.2019 23:00:00 9,3 0,7 11 6 E 1020,2 20 0,0
17.02.2019 22:00:00 9,0 -2,3 2 1 SW 1020,3 20 -
17.02.2019 21:00:00 11,5 -2,7 4 2 ENE 1019,5 20 0,0
17.02.2019 20:00:00 12,7 -2,8 4 2 SE 1019,0 20 0,0
17.02.2019 19:00:00 13,8 -2,2 8 4 N 1018,5 20 -
17.02.2019 18:00:00 17,0 -2,2 11 6 N 1017,7 20 0,0
17.02.2019 17:00:00 19,0 -3,2 4 2 NE 1017,9 20 0,0
17.02.2019 16:00:00 18,1 -3,4 8 4 NNE 1018,5 20 -
17.02.2019 15:00:00 18,5 -3,0 8 4 E 1019,1 20 0,0
17.02.2019 14:00:00 16,8 -3,4 11 6 ESE 1020,7 20 0,0
17.02.2019 13:00:00 13,8 -3,5 8 4 ENE 1022,8 20 -
17.02.2019 12:00:00 11,3 -5,7 8 4 E 1024,3 20 0,0
17.02.2019 11:00:00 9,2 -7,1 11 6 ESE 1024,9 20 0,0
17.02.2019 10:00:00 6,3 -7,0 13 7 ESE 1025,9 20 -
17.02.2019 09:00:00 3,1 -6,9 13 7 ESE 1026,5 20 0,0
17.02.2019 08:00:00 2,5 -7,4 15 8 E 1026,3 20 0,0
17.02.2019 07:00:00 3,2 -6,8 15 8 E 1026,2 20 -
17.02.2019 06:00:00 3,8 -5,2 16 9 E 1025,8 20 0,0
17.02.2019 05:00:00 4,3 -4,0 18 10 E 1025,1 20 0,0
17.02.2019 04:00:00 5,3 -4,0 16 9 E 1025,1 20 -
17.02.2019 03:00:00 5,9 -4,3 21 11 E 1025,3 20 0,0
17.02.2019 02:00:00 6,7 -3,8 22 12 E 1025,4 20 0,0
17.02.2019 01:00:00 7,9 -1,9 22 12 E 1025,2 20 -
17.02.2019 00:00:00 8,9 -0,4 18 10 ESE 1025,1 20 0,0
16.02.2019 23:00:00 9,7 -0,8 22 12 E 1025,0 20 0,0
16.02.2019 22:00:00 11,2 -3,0 16 9 E 1024,7 20 -

tt = temperature
td = dewpoint
ff = wind speed
dd = wind direction
ppp = reduced air pressure
vv = visibility
rr = precipitation

Next stations